Location: Sternwarte ZA, Rosenfeld-Brittheim
(48.2889°N, 8.6789°E)
Time: 05:41:58
(UTC+02:00)

ISS - Pass Details

Date: 03 April 2020
Orbit: 417 x 423 km, 51.6° (Epoch: 29 March)

Event Time Altitude Azimuth Distance (km) Brightness Sun altitude
Rises 20:59:10 0° 291° (WNW) 2,362 2.4 -10.4°
Reaches altitude 10° 21:01:19 10° 284° (WNW) 1,496 0.6 -10.8°
Maximum altitude 21:04:31 42° 212° (SSW) 605 -2.9 -11.3°
Enters shadow 21:06:59 15° 145° (SE) 1,215 -1.9 -11.6°
